Location: Boca do Mato
(22.9085°S, 43.2930°W)
Time: 22:23:08
(UTC+00:00)

Cosmos 1437 - Pass Details

Date: 14 July 2020
Orbit: 369 x 375 km, 81.2° (Epoch: 10 August)

Event Time Altitude Azimuth Distance (km) Brightness Sun altitude
Rises 08:44:20 0° 346° (NNW) 2,206 6.5 -11.4°
Reaches altitude 10° 08:46:19 10° 341° (NNW) 1,365 5.4 -11.0°
Maximum altitude 08:49:13 53° 263° (W) 464 2.6 -10.4°
Drops below altitude 10° 08:52:10 10° 184° (S) 1,387 5.1 -9.7°
Sets 08:54:12 0° 179° (S) 2,246 6.3 -9.3°
